Location: Newark
(0.5300°S, 127.4800°E)
Time: 11:49:02
(UTC+00:00)

A-11 Canister half - Pass Details

Date: 21 September 2019
Orbit: 1514 x 1686 km, 47.2° (Epoch: 18 October)

Event Time Altitude Azimuth Distance (km) Brightness Sun altitude
Rises 20:03:49 0° 194° (SSW) 4,902 11.5 -19.8°
Reaches altitude 10° 20:08:11 10° 179° (S) 3,889 11.1 -18.7°
Maximum altitude 20:15:03 21° 134° (SE) 3,074 11.1 -17.0°
Drops below altitude 10° 20:21:42 10° 90° (E) 3,788 12.5 -15.4°
Sets 20:25:49 0° 74° (ENE) 4,740 13.2 -14.3°
